Погода в Орлинге

Погода в Орлинге : погода сейчас, прогноз погоды и архив. Всё, что Вы хотите узнать о погоде в Орлинге!

Хотите узнать прогноз погоды в Орлинге? Тогда Вам сюда: Погода в Орлинге

Поиск расширенной информации на нашем сайте:

Другие новости

Новости СМИ2

Главная страница сайта

Новости сайта

03.07.2017

Напоминаем, что на нашем специализированном сайте Метеоцентр.Азия вы можете получить высокодетализированные автоматические прогнозы погоды по пунктам России, СНГ и мира в авиационном формате (включающие направление и скорость ветра, видимость, явления погоды, количество и форму облачности, нижнюю и верхнюю границу облачности).


Погода в Орлинге - сегодня

Время (UTC), дата Ветер
(°,м/с) 
Видим.   Явления Облачность Т
(°С)
Тd
(°С)
f(%) Тe
(°С)
Pmin
(гПа)
dP
(гПа)
Po
(мм)
O2
(г/м3)
Тmin Tmax R s Состояние
почвы
06 11.08.18 230 (ЮЗ) 20000 м  {туман}  3/0 верхняя 
[Ci fib]
+26.6 +9.4 34 +28  1006.5  -5  727  265           
12 11.08.18 тихо ()   20000 м    4/0 верхняя 
[Cs]
+20.4 +13.2 63 +27  1004.3  -2.9  724  269    +27.8       
18 11.08.18 тихо ()   н/о  туман  3/0 верхняя 
[Ci fib]
+10.2 +9.8 97 +12  1007.3  1.5  725  280           
00 12.08.18 230 (ЮЗ) 0200 м  туман  ?/?  
+9.3 +9.1 99 +11  1008  0.6  726  281  +8.6        сухая 
06 12.08.18 180 (Ю) 20000 м  {туман}  ясно 
+29.3 +10.1 30 +31  1001  -4.2  723  261           
12 12.08.18 180 (Ю) 20000 м    ясно 
+22.9 +12.8 53 +29  1000.5  -1.1  722  266    +30.7       
18 12.08.18 тихо ()   н/о    ясно 
+10.8 +9.6 92 +12  1004.3  1.9  723  279           
00 13.08.18 тихо ()   20000 м    3/0 верхняя 
[Ci fib]
+13.7 +9.2 74 +14  1005.6  1.7  725  276  +8.7        сухая 
06 13.08.18 тихо ()   20000 м    8/3 600 м кучево-дожд., верхняя 
[Cb calv|Cs]
+29.9 +13.8 37 +37  1001  -2.3  723  260           
12 13.08.18 тихо ()   20000 м    6/1 1000 м средняя 
[Sc diur, vesp|Ac trans]
+26.5 +13.9 46 +34  1002.2  0.7  723  263    +30.8       
18 13.08.18 тихо ()   н/о    6/0 верхняя 
[Ci fib]
+14.1 +12.5 90 +19  1007.9  3.9  726  276           
00 14.08.18 тихо ()   20000 м    10/0 средняя 
[Ac As]
+14.3 +12.8 91 +20  1009.2  1.2  727  276  +10.9        сухая 
06 14.08.18 290 (З) 20000 м    10/4 1000 м средняя, верхняя 
[Sc|Ac trans|Ci fib]
+23 +16.6 67 +36  1006.8  -1.1  726  266           
12 14.08.18 340 (С) 20000 м    10/3 1000 м средняя 
[Sc|Ac As]
+22.2 +17.9 77 +37  1005.5  -1.3  725  266    +26.2       
18 14.08.18 340 (С) н/о  слаб. ливневой дождь  10/6 600 м кучево-дожд., средняя 
[Cb cap|Ac As]
+17.7 +16.5 93 +31  1004.9  -1.2  725  270           
00 15.08.18 160 (Ю) 10 км  слаб. ливневой дождь  10/10 300 м кучево-дожд. 
[Cb cap]
+18.1 +14.5 79 +28  1007.1  2.2  726  271  +17.3      влажная 
12 15.08.18 200 (Ю) 5-10{15}  20000 м    10/10 600 м кучево-дожд. 
[Cb cap]
+15.5 +6.5 55 +15  1013.4  2.6  730  277    +19.3  0.0     
00 16.08.18 140 (ЮВ) 5{10}  20000 м  слаб. ливневой дождь  10/10 600 м кучево-дожд. 
[Cb cap]
+11.4 +9.2 86 +11  1012.1  -2  729  280  +11.2    0.4    влажная 
06 16.08.18 160 (Ю) 20000 м  {ливн. осадки}  10/10 600 м кучево-дожд. 
[Cb cap]
+12.8 +9.9 83 +14  1011.1  -0.8  728  279           
12 16.08.18 160 (Ю) 10 км  слаб. ливневой дождь  10/10 600 м кучево-дожд. 
[Cb cap]
+12.1 +10.6 91 +15  1010.7  -0.4  728  279    +13.4     
18 16.08.18 320 (СЗ) н/о  слаб. ливневой дождь  10/10 600 м кучево-дожд. 
[Cb cap]
+11.5 +10.7 95 +16  1008  -2.7  726  279           
00 17.08.18 тихо ()   10 км  в посл. час ливневой дождь  10/10 300 м кучево-дожд. 
[Cb cap]
+11.8 +11.4 97 +16  1007.6  -0.4  726  278  +11.3      влажная 
06 17.08.18 тихо ()   20000 м    10/10 600 м кучево-дожд. 
[Cb cap]
+14.8 +8.5 66 +15  1007.9  0.7  726  276           
12 17.08.18 тихо ()   20000 м  слаб. ливневой дождь  10/8 600 м кучево-дожд., средняя 
[Cb cap|As op]
+14.1 +12.1 88 +19  1007.9  726  276    +15.8  0.3     
18 17.08.18 тихо ()   н/о  слаб. ливневой дождь  10/10 600 м кучево-дожд. 
[Cb cap]
+12 +11.6 97 +16  1006.3  -1.8  725  278           
Время (UTC), дата Ветер
(°,м/с) 
Видим.   Явления Облачность Т
(°С)
Тd
(°С)
f(%) Тe
(°С)
Pmin
(гПа)
dP
(гПа)
Po
(мм)
O2
(г/м3)
Тmin Tmax R s Состояние
почвы

Для получения пояснительной информации подведите курсор к названию столбца.

ПОГОДА в Орлинге - архив

Всё, что Вы хотите узнать о погоде в Орлинге - удобно и подробно!

Выберите нужную дату (начиная с 1 января 2015* года) и нажмите кнопку "Найти".
Будут отображены архивные сводки погоды по пункту Орлинга, начиная с указанной даты.


Отображать данные в формате CSV (для использования в таблицах Excel)


Внимание! Наш архив погоды предназначен исключительно для личного некоммерческого использования в познавательных целях. Если Вам необходимы официальные справки о состоянии погоды (для производственных, юридических, коммерческих и т.п. целей), обращайтесь в органы Росгидромета.

*Примечание: данная дата относится к архиву по метеостанциям СССР (Россия, СНГ, Балтия).
Архив по метеостанциям Зарубежной Европы и Азии (кроме Китая) хранится 10 дней, по другим регионам земного шара (Китай, Африка, Америка, Австралия, Океания) - 1 день.

Орлинга - район местоположения метеостанции


Название, широта, долгота, высота метеостанции:
Орлинга 56.1°ш. 105.8°д. 338 м над ур. моря [Российская Федерация]

Дополнительная информация

В oтличие oт бoльшинства пoгoдных сайтoв мы публикуем пoдрoбную метеoинфoрмацию в детальнoм прoфессиoнальнoм фoрмате.

Характеристики температуры и влажнoсти вoздуха измеряются на высoте 2 м в тени вдали oт зданий и деревьев.
Скoрoсть ветра измеряется на высoте 10 м (на урoвне рoста челoвека скoрoсть ветра ниже в 1.5-2 раза). Если метеoстанция нахoдится в гoрoде или в лесу, тo скoрoсть ветра занижена на 2-4 м/с пo сравнению с oткрытым местoм. Скoрoсть ветра над акватoриями крупных рек и oзёр, а также на вершинах хoлмoв на 2-5 м/с выше, чем в oбычных услoвиях.
Атмoсфернoе давление в разных тoчках местнoсти мoжет значительнo oтличаться oт давления на метеoстанции, в зависимoсти oт услoвий рельефа (при пoдъёме на 10 м давление пoнижается примернo на 1 мм рт.ст.).